EDT,Max TemperatureF,Mean TemperatureF,Min TemperatureF,Max Dew PointF,MeanDew PointF,Min DewpointF,Max Humidity, Mean Humidity, Min Humidity, Max Sea Level PressureIn, Mean Sea Level PressureIn, Min Sea Level PressureIn, Max VisibilityMiles, Mean VisibilityMiles, Min VisibilityMiles, Max Wind SpeedMPH, Mean Wind SpeedMPH, Max Gust SpeedMPH,PrecipitationIn, CloudCover, Events, WindDirDegrees
2011-10-1,55,48,42,46,41,36,100,78,47,30.16,30.04,29.92,10,10,5,21,15,32,0.00,7,Rain,345
2011-10-2,62,50,37,46,37,25,100,73,24,30.16,30.10,30.01,10,10,10,20,8,28,0.00,2,,329
2011-10-3,66,55,44,57,46,37,100,75,49,30.16,30.08,30.04,10,10,10,15,4,18,0.00,5,Rain,330
2011-10-4,73,60,46,55,47,37,100,74,29,30.28,30.23,30.19,10,9,0,9,1,,0.00,1,Fog,311
2011-10-5,75,60,44,55,49,45,100,75,34,30.28,30.25,30.22,10,8,0,7,1,,0.00,0,Fog,112
2011-10-6,73,58,44,63,53,45,100,83,53,30.33,30.30,30.27,10,5,0,7,1,,0.00,1,Fog,113
2011-10-7,75,62,48,64,54,48,100,83,47,30.41,30.36,30.31,10,4,0,8,1,,0.00,4,Fog,114
2011-10-8,77,62,48,61,56,48,100,78,47,30.42,30.37,30.33,10,5,0,8,2,,0.00,0,Fog,130
2011-10-9,77,62,48,63,54,46,100,77,34,30.41,30.37,30.32,10,4,0,8,1,,0.00,1,Fog,136
2011-10-10,71,62,53,64,56,52,100,80,50,30.30,30.24,30.15,10,8,0,8,3,,0.00,1,Fog,101
2011-10-11,73,60,46,61,54,46,100,78,47,30.15,30.08,30.01,10,6,0,9,3,,0.00,2,Fog,108
2011-10-12,64,60,55,63,59,55,100,97,77,29.99,29.89,29.76,10,6,1,8,3,,0.00,4,Rain,107
2011-10-13,66,60,55,63,61,57,100,90,73,29.73,29.64,29.50,10,4,0,9,1,,0.00,6,Fog,124
2011-10-14,60,56,53,61,52,39,100,84,45,29.55,29.42,29.34,10,9,3,23,10,33,0.00,8,Rain,252
2011-10-15,60,53,46,48,40,34,100,68,36,29.77,29.61,29.53,10,10,7,33,15,44,0.00,5,Rain,261
2011-10-16,53,50,48,54,45,37,100,80,58,29.84,29.77,29.66,10,10,5,14,8,20,0.00,6,Rain,234
2011-10-17,62,52,42,43,35,28,93,60,29,29.80,29.75,29.71,10,10,10,24,11,32,0.00,0,,243
2011-10-18,53,46,39,50,40,34,100,78,62,29.82,29.79,29.77,10,10,5,7,3,,0.00,2,Rain,241
2011-10-19,51,48,46,52,49,46,100,100,100,29.76,29.53,29.27,10,7,4,15,9,24,0.00,8,Rain,32
2011-10-20,53,48,44,54,48,45,100,100,100,29.55,29.21,29.04,10,8,1,20,12,29,0.00,8,Rain,272
2011-10-21,48,46,44,46,43,39,100,87,71,30.02,29.89,29.69,10,10,10,16,12,23,0.00,8,,281
2011-10-22,59,46,32,45,37,32,100,75,36,30.11,30.07,30.04,10,9,0,12,3,18,0.00,1,Fog,236
2011-10-23,66,52,37,45,40,37,100,78,42,30.05,30.00,29.91,10,9,5,17,3,21,0.00,1,,198
2011-10-24,64,57,50,55,44,30,100,69,31,30.05,29.93,29.84,10,10,7,21,9,29,0.00,4,Rain,254
2011-10-25,69,54,39,46,39,36,100,69,31,30.15,30.09,29.89,10,10,10,17,4,24,0.00,3,,199
2011-10-26,57,54,50,57,53,48,100,92,77,29.83,29.79,29.75,10,9,5,13,7,17,0.00,7,Rain,294
2011-10-27,48,45,42,46,43,37,100,94,71,30.06,29.90,29.83,10,10,5,14,7,23,0.00,7,Rain,352
2011-10-28,51,40,30,43,34,30,100,87,54,30.19,30.15,30.10,10,7,0,8,1,,0.00,2,Fog,180
2011-10-29,50,41,32,43,36,32,100,88,58,30.10,30.05,30.01,10,8,2,17,4,28,0.00,4,Rain,186
2011-10-30,53,40,26,45,33,27,100,82,44,30.22,30.16,30.11,10,5,0,12,2,17,0.00,5,Fog,184
2011-10-31,48,46,44,46,39,34,100,76,58,30.13,30.06,30.04,10,10,7,12,7,,0.00,7,Rain,175